QPF
0.01 0.01 0.01 0.01 0.01 0.01 0.01 0.01 0.01 0.00 0.00 0.00 0.00 0.01 0.01 0.01 0.01 0.01 0.01 0.01 0.01 0.01 0.01 0.01 0.01 0.01 0.01 0.01 0.01 0.02 0.04 0.06 0.05 0.05 0.04 0.02 0.02 0.02 0.02 0.02 0.02 0.01 0.01 0.01
0.00 0.01 0.01 0.00 0.00 0.00 0.01 0.01 0.01 0.00 0.01 0.00 0.00 0.01 0.01 0.01 0.01 0.01 0.01 0.01 0.01 0.01 0.01 0.01 0.01 0.01 0.01 0.01 0.01 0.02 0.05 0.07 0.06 0.05 0.03 0.03 0.02 0.02 0.01 0.01 0.01 0.01 0.01 0.00
0.00 0.00 0.01 0.00 0.01 0.01 0.01 0.01 0.01 0.01 0.01 0.01 0.01 0.00 0.00 0.00 0.00 0.00 0.01 0.02 0.02 0.02 0.02 0.01 0.01 0.01 0.01 0.02 0.02 0.03 0.06 0.06 0.05 0.05 0.03 0.02 0.02 0.01 0.01 0.01 0.00 0.00 0.00 0.00
0.00 0.00 0.00 0.00 0.01 0.01 0.01 0.01 0.01 0.01 0.01 0.01 0.00 0.00 0.00 0.00 0.00 0.01 0.01 0.02 0.02 0.02 0.02 0.02 0.02 0.02 0.02 0.02 0.04 0.05 0.06 0.04 0.03 0.03 0.03 0.01 0.01 0.02 0.01 0.01 0.01 0.00 0.00 0.00
0.00 0.00 0.00 0.00 0.00 0.01 0.02 0.02 0.01 0.00 0.00 0.00 0.00 0.00 0.00 0.00 0.00 0.01 0.01 0.01 0.02 0.02 0.02 0.02 0.02 0.02 0.03 0.04 0.05 0.05 0.04 0.02 0.02 0.02 0.02 0.02 0.02 0.02 0.01 0.00 0.00 0.00 0.00 0.00
0.00 0.00 0.01 0.00 0.00 0.01 0.01 0.02 0.01 0.00 0.00 0.00 0.00 0.00 0.01 0.01 0.01 0.01 0.02 0.02 0.03 0.03 0.02 0.01 0.02 0.02 0.02 0.03 0.02 0.02 0.02 0.01 0.01 0.02 0.02 0.01 0.01 0.00 0.00 0.00 0.00 0.00 0.00 0.00
0.01 0.01 0.01 0.01 0.01 0.01 0.01 0.01 0.01 0.00 0.00 0.00 0.00 0.00 0.00 0.01 0.01 0.02 0.03 0.03 0.03 0.03 0.02 0.01 0.01 0.01 0.02 0.02 0.01 0.01 0.01 0.01 0.01 0.01 0.01 0.01 0.01 0.01 0.00 0.00 0.00 0.00 0.00 0.00
0.01 0.01 0.01 0.01 0.02 0.02 0.02 0.01 0.01 0.00 0.00 0.00 0.00 0.00 0.00 0.01 0.01 0.02 0.03 0.03 0.03 0.02 0.02 0.01 0.01 0.01 0.01 0.01 0.02 0.01 0.01 0.02 0.02 0.02 0.01 0.01 0.00 0.01 0.00 0.00 0.00 0.00 0.00 0.00
0.01 0.01 0.01 0.01 0.01 0.01 0.01 0.01 0.00 0.00 0.00 0.01 0.01 0.00 0.00 0.00 0.01 0.02 0.03 0.02 0.02 0.02 0.01 0.01 0.01 0.01 0.01 0.01 0.02 0.02 0.02 0.02 0.02 0.02 0.01 0.00 0.00 0.00 0.00 0.00 0.00 0.00 0.00 0.00
0.01 0.01 0.01 0.01 0.01 0.01 0.01 0.00 0.00 0.00 0.00 0.00 0.00 0.00 0.00 0.00 0.01 0.01 0.02 0.02 0.02 0.01 0.01 0.01 0.01 0.02 0.02 0.02 0.01 0.02 0.02 0.01 0.01 0.01 0.00 0.00 0.00 0.00 0.00 0.00 0.00 0.00 0.00 0.00
0.02 0.01 0.01 0.01 0.02 0.01 0.00 0.00 0.00 0.00 0.00 0.00 0.00 0.00 0.00 0.00 0.00 0.00 0.01 0.02 0.01 0.01 0.01 0.01 0.02 0.02 0.02 0.02 0.02 0.01 0.01 0.01 0.01 0.00 0.00 0.00 0.00 0.00 0.00 0.00 0.00 0.00 0.00 0.00
0.03 0.02 0.02 0.01 0.02 0.01 0.00 0.00 0.00 0.00 0.00 0.00 0.00 0.00 0.01 0.01 0.01 0.00 0.01 0.01 0.01 0.01 0.01 0.01 0.01 0.02 0.01 0.01 0.01 0.01 0.01 0.01 0.00 0.00 0.00 0.00 0.00 0.00 0.00 0.00 0.00 0.00 0.00 0.00
0.02 0.02 0.03 0.02 0.01 0.01 0.00 0.00 0.00 0.00 0.00 0.00 0.00 0.00 0.01 0.01 0.01 0.01 0.01 0.01 0.01 0.01 0.01 0.01 0.01 0.01 0.01 0.01 0.01 0.01 0.00 0.00 0.00 0.00 0.00 0.00 0.00 0.00 0.00 0.00 0.00 0.00 0.00 0.00
0.01 0.01 0.02 0.01 0.01 0.00 0.00 0.00 0.00 0.00 0.00 0.00 0.01 0.01 0.01 0.01 0.01 0.00 0.00 0.00 0.00 0.00 0.01 0.01 0.01 0.01 0.01 0.01 0.01 0.00 0.00 0.00 0.00 0.00 0.00 0.00 0.00 0.00 0.00 0.00 0.00 0.00 0.00 0.00
0.00 0.01 0.01 0.00 0.00 0.00 0.00 0.00 0.00 0.00 0.01 0.01 0.01 0.01 0.01 0.01 0.01 0.00 0.00 0.00 0.00 0.00 0.00 0.01 0.01 0.01 0.00 0.00 0.00 0.00 0.00 0.00 0.00 0.00 0.00 0.00 0.00 0.00 0.00 0.00 0.00 0.00 0.00 0.00
0.00 0.00 0.00 0.00 0.00 0.00 0.00 0.00 0.00 0.00 0.01 0.01 0.01 0.01 0.01 0.00 0.00 0.00 0.00 0.00 0.00 0.00 0.00 0.00 0.00 0.00 0.00 0.00 0.00 0.00 0.00 0.00 0.00 0.00 0.00 0.00 0.00 0.00 0.00 0.00 0.00 0.00 0.00 0.00
0.01 0.00 0.00 0.00 0.00 0.00 0.00 0.00 0.00 0.00 0.00 0.01 0.01 0.01 0.00 0.00 0.00 0.00 0.00 0.00 0.00 0.00 0.00 0.00 0.00 0.00 0.00 0.00 0.00 0.00 0.00 0.00 0.00 0.00 0.00 0.00 0.00 0.00 0.00 0.00 0.00 0.00 0.00 0.00
0.01 0.00 0.00 0.00 0.00 0.00 0.00 0.00 0.00 0.00 0.00 0.00 0.00 0.00 0.00 0.00 0.00 0.00 0.00 0.00 0.00 0.00 0.00 0.00 0.00 0.00 0.00 0.00 0.00 0.00 0.00 0.00 0.00 0.00 0.00 0.00 0.00 0.00 0.00 0.00 0.00 0.00 0.00 0.00
0.00 0.00 0.00 0.00 0.00 0.00 0.00 0.00 0.00 0.00 0.00 0.00 0.00 0.00 0.00 0.00 0.00 0.00 0.00 0.00 0.00 0.00 0.00 0.00 0.00 0.00 0.00 0.00 0.00 0.00 0.00 0.00 0.00 0.00 0.00 0.00 0.00 0.00 0.00 0.00 0.00 0.00 0.00 0.00
0.00 0.00 0.00 0.00 0.00 0.00 0.00 0.00 0.00 0.00 0.00 0.00 0.00 0.00 0.00 0.00 0.00 0.00 0.00 0.00 0.00 0.00 0.00 0.00 0.00 0.00 0.00 0.00 0.00 0.00 0.00 0.00 0.00 0.00 0.00 0.00 0.00 0.00 0.00 0.00 0.00 0.00 0.00 0.00
0.00 0.00 0.00 0.00 0.00 0.00 0.00 0.00 0.00 0.00 0.00 0.00 0.00 0.00 0.00 0.00 0.00 0.00 0.00 0.00 0.00 0.00 0.00 0.00 0.00 0.00 0.00 0.00 0.00 0.00 0.00 0.00 0.00 0.00 0.00 0.00 0.00 0.00 0.00 0.00 0.00 0.00 0.00 0.00
0.00 0.00 0.00 0.00 0.00 0.00 0.00 0.00 0.00 0.00 0.00 0.00 0.00 0.00 0.00 0.00 0.00 0.00 0.00 0.00 0.00 0.00 0.00 0.00 0.00 0.00 0.00 0.00 0.00 0.00 0.00 0.00 0.00 0.00 0.00 0.00 0.00 0.00 0.00 0.00 0.00 0.00 0.00 0.00
0.00 0.00 0.00 0.00 0.00 0.00 0.00 0.00 0.00 0.00 0.00 0.00 0.00 0.00 0.00 0.00 0.00 0.00 0.00 0.00 0.00 0.00 0.00 0.00 0.00 0.00 0.00 0.00 0.00 0.00 0.00 0.00 0.00 0.00 0.00 0.00 0.00 0.00 0.00 0.00 0.00 0.00 0.00 0.00
0.00 0.00 0.00 0.00 0.00 0.00 0.00 0.00 0.00 0.00 0.00 0.00 0.00 0.00 0.00 0.00 0.00 0.00 0.00 0.00 0.00 0.00 0.00 0.00 0.00 0.00 0.00 0.00 0.00 0.00 0.00 0.00 0.00 0.00 0.00 0.00 0.00 0.00 0.00 0.00 0.00 0.00 0.00 0.00
0.00 0.00 0.00 0.00 0.00 0.00 0.00 0.00 0.00 0.00 0.00 0.00 0.00 0.00 0.00 0.00 0.00 0.00 0.00 0.00 0.00 0.00 0.00 0.00 0.00 0.00 0.00 0.00 0.00 0.00 0.00 0.00 0.00 0.00 0.00 0.00 0.00 0.00 0.00 0.00 0.00 0.00 0.00 0.00
0.01 0.01 0.01 0.00 0.00 0.00 0.00 0.00 0.00 0.00 0.00 0.00 0.00 0.00 0.00 0.00 0.00 0.00 0.00 0.00 0.00 0.00 0.00 0.00 0.00 0.00 0.00 0.00 0.00 0.00 0.00 0.00 0.00 0.00 0.00 0.00 0.00 0.00 0.00 0.00 0.00 0.00 0.00 0.00
0.01 0.01 0.01 0.01 0.00 0.00 0.00 0.00 0.00 0.00 0.00 0.00 0.00 0.00 0.00 0.00 0.00 0.00 0.00 0.00 0.00 0.00 0.00 0.00 0.00 0.00 0.00 0.00 0.00 0.00 0.00 0.00 0.00 0.00 0.00 0.00 0.00 0.00 0.00 0.00 0.00 0.00 0.00 0.00
MSLP
1014.65 1014.50 1014.33 1014.11 1013.87 1013.59 1013.31 1013.06 1012.88 1012.81 1012.90 1013.19 1013.71 1014.44 1015.37 1016.45 1017.61 1018.78 1019.88 1020.84 1021.62 1022.17 1022.52 1022.66 1022.65 1022.54 1022.37 1022.19 1022.04 1021.95 1021.90 1021.91 1021.94 1021.97 1021.99 1021.96 1021.88 1021.74 1021.55 1021.32 1021.07 1020.84 1020.64 1020.50
1014.78 1014.54 1014.21 1013.82 1013.39 1012.94 1012.52 1012.19 1012.01 1012.01 1012.24 1012.71 1013.44 1014.38 1015.49 1016.70 1017.94 1019.13 1020.21 1021.11 1021.80 1022.28 1022.55 1022.65 1022.61 1022.49 1022.34 1022.19 1022.08 1022.01 1022.01 1022.05 1022.12 1022.20 1022.28 1022.32 1022.33 1022.27 1022.18 1022.03 1021.86 1021.69 1021.53 1021.40
1014.82 1014.50 1014.08 1013.56 1013.00 1012.44 1011.95 1011.60 1011.44 1011.53 1011.89 1012.52 1013.41 1014.50 1015.73 1017.02 1018.29 1019.47 1020.50 1021.32 1021.93 1022.33 1022.54 1022.60 1022.55 1022.44 1022.31 1022.19 1022.11 1022.07 1022.09 1022.15 1022.25 1022.37 1022.50 1022.61 1022.69 1022.73 1022.73 1022.69 1022.62 1022.52 1022.41 1022.32
1014.80 1014.43 1013.94 1013.36 1012.73 1012.14 1011.64 1011.31 1011.21 1011.39 1011.86 1012.60 1013.60 1014.78 1016.06 1017.36 1018.61 1019.74 1020.69 1021.43 1021.97 1022.31 1022.49 1022.54 1022.51 1022.42 1022.33 1022.24 1022.19 1022.18 1022.21 1022.29 1022.40 1022.54 1022.69 1022.85 1022.99 1023.12 1023.22 1023.27 1023.29 1023.28 1023.24 1023.19
1014.71 1014.30 1013.78 1013.19 1012.57 1011.99 1011.54 1011.27 1011.25 1011.51 1012.06 1012.88 1013.93 1015.13 1016.40 1017.66 1018.85 1019.90 1020.77 1021.44 1021.92 1022.24 1022.41 1022.49 1022.49 1022.47 1022.43 1022.39 1022.38 1022.39 1022.43 1022.50 1022.60 1022.74 1022.90 1023.08 1023.27 1023.46 1023.63 1023.77 1023.87 1023.94 1023.96 1023.95
1014.57 1014.12 1013.59 1013.02 1012.44 1011.93 1011.56 1011.38 1011.45 1011.79 1012.40 1013.26 1014.30 1015.47 1016.69 1017.87 1018.97 1019.93 1020.73 1021.35 1021.80 1022.12 1022.33 1022.46 1022.53 1022.58 1022.61 1022.64 1022.67 1022.70 1022.75 1022.81 1022.90 1023.01 1023.16 1023.34 1023.55 1023.77 1023.99 1024.19 1024.36 1024.49 1024.56 1024.60
1014.37 1013.89 1013.36 1012.82 1012.31 1011.90 1011.63 1011.56 1011.72 1012.13 1012.78 1013.63 1014.65 1015.76 1016.89 1017.99 1018.99 1019.87 1020.60 1021.19 1021.64 1021.99 1022.25 1022.46 1022.62 1022.76 1022.87 1022.97 1023.04 1023.10 1023.15 1023.20 1023.27 1023.36 1023.49 1023.66 1023.86 1024.09 1024.33 1024.57 1024.78 1024.94 1025.06 1025.12
1014.13 1013.61 1013.08 1012.59 1012.16 1011.85 1011.70 1011.73 1011.98 1012.45 1013.13 1013.97 1014.94 1015.98 1017.02 1018.02 1018.94 1019.75 1020.44 1021.01 1021.48 1021.88 1022.21 1022.50 1022.76 1022.98 1023.17 1023.33 1023.45 1023.54 1023.60 1023.64 1023.70 1023.77 1023.87 1024.02 1024.21 1024.43 1024.68 1024.92 1025.15 1025.33 1025.47 1025.55
1013.88 1013.32 1012.80 1012.35 1012.01 1011.81 1011.76 1011.90 1012.23 1012.75 1013.44 1014.27 1015.19 1016.15 1017.11 1018.03 1018.88 1019.63 1020.30 1020.88 1021.38 1021.82 1022.22 1022.58 1022.91 1023.21 1023.47 1023.67 1023.83 1023.95 1024.02 1024.08 1024.13 1024.19 1024.29 1024.42 1024.60 1024.81 1025.04 1025.28 1025.49 1025.68 1025.82 1025.90
1013.64 1013.05 1012.54 1012.15 1011.90 1011.80 1011.86 1012.09 1012.49 1013.05 1013.75 1014.55 1015.42 1016.33 1017.22 1018.07 1018.87 1019.59 1020.24 1020.83 1021.35 1021.84 1022.28 1022.69 1023.07 1023.41 1023.71 1023.95 1024.14 1024.28 1024.38 1024.45 1024.52 1024.59 1024.69 1024.83 1025.00 1025.20 1025.42 1025.64 1025.84 1026.01 1026.13 1026.21
1013.42 1012.82 1012.35 1012.03 1011.87 1011.86 1012.02 1012.33 1012.79 1013.39 1014.09 1014.87 1015.70 1016.55 1017.39 1018.19 1018.95 1019.65 1020.29 1020.88 1021.43 1021.93 1022.39 1022.82 1023.22 1023.57 1023.88 1024.13 1024.34 1024.50 1024.63 1024.73 1024.83 1024.94 1025.06 1025.22 1025.40 1025.60 1025.80 1026.00 1026.18 1026.32 1026.42 1026.48
1013.20 1012.64 1012.24 1012.01 1011.94 1012.03 1012.28 1012.67 1013.18 1013.80 1014.50 1015.25 1016.05 1016.85 1017.64 1018.41 1019.14 1019.82 1020.45 1021.04 1021.58 1022.07 1022.53 1022.95 1023.33 1023.67 1023.96 1024.21 1024.42 1024.60 1024.76 1024.90 1025.05 1025.20 1025.37 1025.56 1025.76 1025.97 1026.17 1026.35 1026.50 1026.62 1026.69 1026.72
1012.95 1012.48 1012.18 1012.06 1012.11 1012.31 1012.64 1013.09 1013.65 1014.28 1014.97 1015.70 1016.45 1017.21 1017.97 1018.70 1019.40 1020.06 1020.68 1021.25 1021.78 1022.25 1022.69 1023.07 1023.42 1023.72 1023.98 1024.21 1024.42 1024.61 1024.79 1024.98 1025.18 1025.38 1025.60 1025.83 1026.06 1026.28 1026.48 1026.65 1026.78 1026.86 1026.91 1026.91
1012.63 1012.29 1012.13 1012.15 1012.32 1012.63 1013.06 1013.57 1014.15 1014.79 1015.47 1016.17 1016.88 1017.60 1018.31 1019.01 1019.68 1020.32 1020.92 1021.48 1021.98 1022.43 1022.83 1023.18 1023.47 1023.73 1023.96 1024.17 1024.37 1024.56 1024.77 1025.00 1025.24 1025.50 1025.76 1026.03 1026.29 1026.52 1026.72 1026.87 1026.98 1027.04 1027.06 1027.05
1012.20 1012.03 1012.03 1012.21 1012.52 1012.95 1013.46 1014.03 1014.65 1015.28 1015.94 1016.60 1017.27 1017.95 1018.62 1019.28 1019.93 1020.55 1021.13 1021.67 1022.16 1022.58 1022.95 1023.26 1023.52 1023.74 1023.94 1024.12 1024.31 1024.51 1024.74 1024.99 1025.26 1025.55 1025.85 1026.15 1026.42 1026.66 1026.85 1027.00 1027.09 1027.13 1027.14 1027.11
1011.66 1011.67 1011.86 1012.19 1012.65 1013.20 1013.80 1014.42 1015.06 1015.70 1016.33 1016.96 1017.59 1018.21 1018.85 1019.48 1020.10 1020.70 1021.27 1021.80 1022.28 1022.69 1023.04 1023.33 1023.57 1023.77 1023.94 1024.11 1024.29 1024.48 1024.71 1024.97 1025.26 1025.57 1025.88 1026.18 1026.45 1026.69 1026.87 1027.01 1027.09 1027.12 1027.11 1027.08
1011.02 1011.21 1011.58 1012.08 1012.68 1013.34 1014.01 1014.69 1015.35 1015.98 1016.59 1017.19 1017.78 1018.37 1018.97 1019.57 1020.17 1020.76 1021.33 1021.86 1022.34 1022.76 1023.11 1023.40 1023.63 1023.82 1023.99 1024.14 1024.31 1024.50 1024.72 1024.97 1025.25 1025.55 1025.85 1026.13 1026.39 1026.61 1026.78 1026.90 1026.97 1027.00 1027.00 1026.98
1010.34 1010.70 1011.23 1011.87 1012.60 1013.35 1014.10 1014.82 1015.50 1016.13 1016.73 1017.30 1017.86 1018.41 1018.98 1019.56 1020.15 1020.74 1021.32 1021.86 1022.35 1022.79 1023.15 1023.46 1023.70 1023.90 1024.07 1024.22 1024.38 1024.55 1024.75 1024.98 1025.23 1025.49 1025.76 1026.02 1026.24 1026.44 1026.59 1026.69 1026.76 1026.79 1026.80 1026.80
1009.71 1010.20 1010.86 1011.62 1012.44 1013.27 1014.07 1014.83 1015.52 1016.16 1016.75 1017.30 1017.83 1018.37 1018.92 1019.49 1020.07 1020.66 1021.25 1021.81 1022.32 1022.79 1023.18 1023.51 1023.78 1023.99 1024.16 1024.31 1024.46 1024.61 1024.78 1024.97 1025.18 1025.40 1025.62 1025.83 1026.02 1026.19 1026.31 1026.41 1026.47 1026.51 1026.54 1026.56
1009.18 1009.78 1010.52 1011.36 1012.24 1013.12 1013.96 1014.74 1015.45 1016.10 1016.68 1017.23 1017.75 1018.28 1018.82 1019.38 1019.96 1020.56 1021.15 1021.73 1022.27 1022.76 1023.18 1023.54 1023.83 1024.06 1024.24 1024.39 1024.53 1024.66 1024.79 1024.94 1025.10 1025.26 1025.43 1025.60 1025.75 1025.88 1025.99 1026.08 1026.15 1026.20 1026.25 1026.29
1008.83 1009.48 1010.26 1011.14 1012.05 1012.95 1013.81 1014.61 1015.33 1015.98 1016.56 1017.11 1017.64 1018.16 1018.70 1019.26 1019.85 1020.44 1021.05 1021.63 1022.19 1022.70 1023.15 1023.53 1023.84 1024.08 1024.27 1024.42 1024.54 1024.65 1024.75 1024.86 1024.97 1025.09 1025.21 1025.34 1025.45 1025.56 1025.66 1025.74 1025.82 1025.88 1025.94 1026.01
1008.67 1009.32 1010.11 1010.98 1011.88 1012.78 1013.64 1014.43 1015.16 1015.82 1016.41 1016.97 1017.51 1018.04 1018.58 1019.14 1019.72 1020.32 1020.92 1021.51 1022.07 1022.59 1023.05 1023.44 1023.77 1024.03 1024.22 1024.37 1024.48 1024.57 1024.65 1024.72 1024.79 1024.87 1024.96 1025.05 1025.15 1025.24 1025.33 1025.41 1025.49 1025.56 1025.64 1025.71
1008.67 1009.30 1010.05 1010.88 1011.75 1012.62 1013.45 1014.24 1014.96 1015.62 1016.23 1016.80 1017.35 1017.89 1018.44 1019.00 1019.58 1020.17 1020.76 1021.35 1021.90 1022.42 1022.88 1023.27 1023.60 1023.87 1024.07 1024.23 1024.33 1024.41 1024.47 1024.53 1024.58 1024.63 1024.69 1024.76 1024.84 1024.92 1025.00 1025.09 1025.17 1025.25 1025.32 1025.39
1008.78 1009.35 1010.04 1010.81 1011.62 1012.44 1013.24 1014.01 1014.72 1015.39 1016.01 1016.60 1017.16 1017.72 1018.27 1018.83 1019.40 1019.98 1020.55 1021.12 1021.66 1022.15 1022.61 1023.00 1023.34 1023.61 1023.82 1023.98 1024.10 1024.18 1024.23 1024.28 1024.32 1024.36 1024.41 1024.46 1024.52 1024.60 1024.67 1024.75 1024.83 1024.91 1024.98 1025.04
1008.95 1009.44 1010.04 1010.73 1011.47 1012.23 1012.99 1013.73 1014.44 1015.11 1015.75 1016.35 1016.93 1017.49 1018.05 1018.61 1019.17 1019.72 1020.27 1020.81 1021.32 1021.80 1022.24 1022.63 1022.96 1023.24 1023.47 1023.64 1023.77 1023.86 1023.93 1023.98 1024.02 1024.05 1024.09 1024.13 1024.18 1024.24 1024.31 1024.38 1024.45 1024.51 1024.57 1024.62
1009.09 1009.50 1010.01 1010.61 1011.28 1011.98 1012.69 1013.41 1014.11 1014.78 1015.43 1016.05 1016.64 1017.21 1017.77 1018.32 1018.86 1019.39 1019.91 1020.41 1020.90 1021.35 1021.77 1022.15 1022.49 1022.78 1023.02 1023.21 1023.36 1023.47 1023.56 1023.62 1023.66 1023.69 1023.72 1023.75 1023.79 1023.83 1023.87 1023.92 1023.97 1024.02 1024.06 1024.09
1009.17 1009.49 1009.92 1010.44 1011.03 1011.67 1012.35 1013.04 1013.73 1014.41 1015.07 1015.70 1016.30 1016.88 1017.43 1017.97 1018.48 1018.98 1019.47 1019.94 1020.39 1020.82 1021.22 1021.59 1021.93 1022.23 1022.48 1022.70 1022.87 1023.01 1023.11 1023.18 1023.23 1023.26 1023.28 1023.29 1023.30 1023.31 1023.33 1023.35 1023.37 1023.40 1023.42 1023.44
Thickness
5648 5654 5655 5655 5655 5652 5644 5641 5634 5640 5640 5639 5632 5623 5613 5602 5593 5584 5576 5569 5562 5555 5549 5546 5543 5540 5539 5537 5536 5535 5534 5534 5533 5532 5532 5533 5533 5533 5534 5534 5534 5535 5536 5537
5645 5653 5653 5652 5655 5654 5651 5648 5643 5642 5638 5636 5628 5617 5607 5597 5589 5580 5571 5564 5555 5549 5543 5539 5536 5533 5530 5528 5527 5527 5526 5525 5524 5524 5523 5524 5523 5523 5523 5523 5523 5524 5525 5526
5630 5641 5647 5641 5651 5651 5648 5649 5645 5639 5637 5626 5618 5611 5603 5594 5586 5576 5567 5558 5550 5542 5537 5532 5529 5526 5523 5521 5520 5519 5518 5517 5516 5516 5516 5515 5515 5514 5514 5513 5514 5514 5515 5516
5622 5632 5629 5642 5655 5653 5647 5644 5643 5639 5631 5624 5616 5605 5596 5589 5581 5570 5561 5552 5544 5537 5531 5526 5523 5520 5517 5515 5513 5512 5511 5510 5510 5509 5508 5508 5507 5506 5505 5505 5505 5504 5505 5506
5615 5620 5628 5643 5650 5648 5643 5639 5639 5633 5623 5613 5605 5596 5585 5580 5573 5564 5555 5547 5539 5532 5526 5521 5518 5515 5512 5510 5508 5507 5506 5504 5504 5503 5501 5501 5499 5498 5498 5497 5497 5497 5497 5497
5615 5621 5621 5636 5648 5652 5645 5633 5633 5627 5618 5609 5604 5594 5583 5573 5566 5556 5547 5539 5532 5527 5521 5517 5513 5510 5507 5505 5503 5502 5501 5500 5499 5498 5496 5494 5493 5493 5492 5491 5490 5491 5490 5490
5614 5616 5624 5638 5645 5648 5630 5628 5630 5623 5615 5607 5601 5593 5581 5569 5559 5550 5541 5534 5528 5522 5517 5513 5509 5506 5503 5501 5499 5498 5497 5495 5494 5493 5491 5490 5488 5487 5487 5486 5485 5484 5483 5482
5611 5612 5620 5636 5639 5634 5630 5630 5626 5618 5609 5600 5591 5583 5573 5563 5553 5544 5536 5529 5523 5518 5513 5509 5506 5504 5500 5497 5496 5494 5493 5492 5490 5489 5488 5486 5485 5483 5482 5481 5480 5479 5478 5477
5614 5617 5627 5630 5630 5631 5629 5626 5620 5612 5603 5595 5586 5576 5567 5557 5548 5539 5532 5526 5520 5515 5510 5506 5503 5501 5498 5495 5493 5492 5490 5488 5487 5486 5484 5483 5482 5480 5478 5477 5477 5475 5474 5473
5617 5625 5628 5628 5629 5628 5627 5623 5617 5609 5600 5592 5583 5573 5563 5553 5544 5536 5529 5523 5517 5513 5508 5503 5501 5499 5496 5494 5492 5490 5488 5486 5484 5483 5481 5480 5478 5477 5476 5475 5474 5474 5472 5471
5617 5623 5625 5626 5624 5622 5620 5616 5611 5603 5596 5588 5579 5568 5560 5550 5541 5534 5527 5521 5516 5512 5507 5503 5500 5497 5495 5493 5491 5488 5486 5484 5482 5481 5479 5477 5475 5474 5474 5474 5474 5473 5472 5470
5618 5623 5620 5620 5620 5618 5615 5610 5605 5599 5589 5582 5575 5566 5557 5548 5539 5532 5526 5520 5515 5511 5507 5503 5500 5497 5495 5493 5491 5489 5486 5484 5482 5480 5478 5477 5476 5474 5474 5474 5474 5474 5473 5471
5623 5624 5621 5619 5617 5615 5610 5606 5601 5595 5587 5578 5569 5563 5555 5545 5537 5531 5526 5521 5516 5512 5507 5504 5501 5498 5496 5494 5492 5490 5487 5485 5483 5481 5480 5478 5477 5476 5475 5474 5474 5474 5473 5472
5622 5621 5618 5616 5614 5611 5607 5602 5597 5590 5582 5575 5567 5559 5553 5545 5538 5532 5527 5522 5518 5513 5509 5505 5503 5500 5498 5496 5494 5492 5489 5487 5485 5484 5482 5481 5479 5478 5477 5476 5476 5475 5475 5475
5622 5622 5619 5615 5611 5607 5603 5599 5592 5584 5578 5571 5565 5559 5553 5546 5539 5533 5528 5524 5519 5515 5511 5508 5505 5502 5500 5498 5496 5494 5492 5490 5488 5487 5485 5484 5482 5481 5480 5479 5478 5478 5478 5478
5619 5618 5616 5613 5609 5604 5600 5596 5591 5584 5578 5571 5565 5560 5554 5548 5541 5535 5530 5526 5521 5517 5514 5511 5508 5505 5503 5501 5499 5496 5495 5494 5492 5491 5489 5488 5487 5486 5485 5483 5483 5482 5482 5482
5617 5614 5612 5610 5607 5604 5601 5597 5592 5586 5580 5573 5568 5562 5555 5549 5542 5536 5532 5529 5525 5521 5518 5514 5512 5509 5507 5505 5503 5501 5499 5498 5498 5496 5494 5493 5492 5491 5490 5489 5488 5488 5487 5487
5626 5624 5621 5618 5613 5607 5602 5597 5593 5588 5582 5576 5570 5564 5558 5552 5546 5540 5535 5531 5527 5524 5521 5519 5517 5514 5512 5510 5508 5506 5504 5503 5502 5500 5499 5498 5498 5497 5495 5494 5494 5493 5493 5492
5628 5625 5623 5619 5616 5611 5606 5600 5594 5590 5584 5579 5573 5567 5561 5556 5550 5544 5539 5535 5532 5528 5525 5524 5521 5519 5516 5515 5513 5511 5509 5508 5507 5506 5505 5504 5503 5502 5501 5500 5500 5499 5498 5497
5628 5627 5624 5620 5616 5612 5607 5602 5596 5591 5586 5581 5576 5569 5564 5559 5554 5549 5544 5540 5538 5536 5533 5530 5527 5524 5522 5520 5519 5516 5515 5514 5513 5512 5510 5510 5509 5508 5507 5506 5505 5505 5504 5503
5628 5627 5625 5621 5617 5613 5609 5605 5599 5594 5589 5585 5580 5574 5569 5563 5559 5554 5549 5545 5543 5541 5538 5536 5533 5530 5528 5526 5524 5522 5521 5520 5518 5517 5517 5516 5514 5513 5513 5512 5511 5510 5510 5509
5628 5627 5626 5623 5618 5614 5610 5606 5602 5597 5592 5588 5583 5579 5573 5567 5563 5559 5556 5554 5551 5547 5544 5541 5539 5537 5535 5532 5530 5528 5527 5525 5524 5523 5522 5521 5520 5520 5519 5518 5517 5517 5516 5515
5628 5629 5627 5625 5621 5617 5612 5608 5605 5601 5596 5592 5588 5583 5579 5575 5571 5566 5562 5560 5557 5554 5551 5548 5546 5543 5541 5538 5536 5534 5533 5532 5531 5530 5529 5528 5527 5526 5526 5525 5524 5524 5523 5521
5629 5629 5628 5626 5622 5617 5613 5610 5607 5604 5600 5597 5594 5590 5585 5580 5575 5574 5572 5568 5564 5560 5558 5555 5552 5550 5547 5544 5542 5541 5539 5538 5538 5537 5536 5535 5534 5534 5533 5532 5532 5531 5530 5529
5629 5628 5627 5624 5621 5620 5617 5613 5609 5605 5602 5599 5596 5594 5591 5589 5585 5581 5577 5574 5570 5567 5564 5562 5559 5556 5553 5551 5549 5548 5546 5545 5545 5543 5543 5542 5542 5541 5541 5540 5539 5538 5537 5536
5627 5627 5627 5627 5626 5623 5619 5615 5611 5608 5605 5602 5599 5597 5595 5593 5590 5587 5583 5580 5577 5573 5571 5569 5566 5562 5560 5558 5556 5555 5553 5552 5551 5550 5550 5549 5549 5548 5548 5547 5546 5546 5545 5544
5623 5623 5623 5622 5622 5622 5621 5618 5615 5612 5611 5608 5605 5602 5600 5597 5594 5591 5588 5585 5583 5580 5577 5575 5573 5570 5568 5566 5564 5562 5561 5560 5559 5558 5557 5556 5556 5555 5555 5554 5554 5553 5551 5550